Voltar ao catálogo

CZ-4 DEB

AtivoSSO
NORAD 37622·DEBRIS·🇨🇳 China

Lançado Sep 3, 1990 de Taiyuan Satellite Launch Center

Loading…

Próximas Passagens (próximas 24 horas)

TLE

AtualizadoSource: Space-Track

Época: Sep 13, 2026, 07:55 UTC

1 37622U 90081DJ  26256.33029115  .00001407  00000-0  38281-3 0  9990
2 37622  98.2986 291.1304 0033190  61.4292 359.9752 14.48660390344657

Acompanhe CZ-4 DEB em tempo real com AllMySat

Download on the App Store